Location: Oshawa
(43.9000°N, 78.8670°W)
Time: 05:40:03
(UTC-05:00)

Tiangong 2 - Visible Passes

Search period start: 18 February 2018 00:00
Search period end: 28 February 2018 00:00
Orbit: 385 x 388 km, 42.8° (Epoch: 17 February)

Date Brightness Start Highest point End Pass type
(mag) Time Alt. Az. Time Alt. Az. Time Alt. Az.
18 Feb 1.2 18:43:44 10° W 18:46:54 68° S 18:49:09 18° ESE visible
18 Feb 4.2 20:20:40 10° W 20:21:25 15° WSW 20:21:25 15° WSW visible
19 Feb 2.0 19:21:36 10° W 19:24:37 40° SSW 19:25:23 33° SSE visible
20 Feb 1.6 18:22:37 10° W 18:25:45 55° SSW 18:28:51 10° ESE visible
20 Feb 3.6 19:59:54 10° WSW 20:01:42 17° SW 20:01:42 17° SW visible
21 Feb 2.9 19:00:36 10° W 19:03:22 27° SSW 19:05:49 12° SSE visible
22 Feb 4.0 19:39:54 10° SW 19:40:45 11° SW 19:41:35 10° SSW visible
23 Feb 3.7 18:39:48 10° WSW 18:42:01 18° SSW 18:44:14 10° SSE visible
